Torna al catalogo

STARLINK-4396

AttivoComunicazioniVLEO
NORAD 53637·PAYLOAD·🇺🇸 United States

Lanciato Aug 28, 2022 da Cape Canaveral Space Force Station

Loading…

Prossimi Passaggi (prossime 24 ore)

TLE

AggiornatoSource: CelesTrak SupGP

Epoca: Sep 14, 2026, 20:41 UTC

1 53637C 22104BB  26257.86229167 -.00006980  00000+0 -19970-3 0  2576
2 53637  53.1580  88.3718 0001265  83.0035  72.0581 15.35401097    15

Traccia STARLINK-4396 in tempo reale con AllMySat

Download on the App Store